ECMWFFLT1_850_thetae_057.txt.gz
Theta_e
319 321 324 323 321 323 325 323 322 323 324 323 322 318 316 321 325 324 323 324 323 322 322 323 323 322 320 322 325 325 324 325 326 325 325 325 325 326 326 326 326 327 327 326 325 325 325 326 327 326 326 326 325 326 325 325 325 326 326 325 324 324 324
321 321 325 325 322 323 325 323 320 320 322 321 318 313 311 318 323 322 322 323 323 322 320 320 321 320 319 322 324 324 324 325 325 325 324 324 324 324 325 325 325 326 326 326 326 325 324 325 326 326 326 325 325 325 324 324 324 325 325 325 324 323 323
324 321 324 325 322 321 323 322 321 320 319 318 316 311 308 314 321 321 321 322 321 319 316 316 317 317 317 319 320 322 323 324 324 324 323 323 323 323 324 324 324 324 325 326 327 326 325 324 325 326 324 324 323 323 323 322 322 322 323 323 322 321 322
325 323 322 322 320 322 323 323 323 322 319 318 317 314 308 309 317 320 320 320 318 317 316 317 317 318 317 317 318 319 321 322 323 323 322 321 321 321 322 322 323 323 323 325 325 325 324 324 324 324 322 322 322 322 322 320 319 319 319 319 319 317 317
323 319 316 317 320 323 324 323 321 319 318 317 316 315 310 307 311 316 318 317 317 319 319 316 314 316 316 314 315 316 318 320 321 321 321 320 319 320 321 321 322 323 323 323 324 324 324 323 323 322 321 321 321 321 320 319 319 319 318 317 317 317 316
318 312 311 313 318 322 321 319 317 315 314 313 312 311 309 307 307 310 313 316 318 319 318 315 312 311 311 310 310 310 313 318 319 318 319 318 318 319 319 320 320 321 323 323 323 323 323 322 321 321 321 321 321 321 320 319 319 318 318 318 318 319 319
312 308 309 310 314 318 318 317 316 312 311 310 309 308 307 306 306 307 309 312 317 317 317 317 313 310 308 308 307 306 308 315 318 317 316 317 317 317 318 319 319 321 323 323 323 323 321 320 320 319 321 322 321 321 320 320 319 317 316 316 316 317 319
310 307 308 308 312 317 318 318 315 311 310 309 309 308 307 306 305 306 306 308 312 315 316 316 312 309 307 306 306 306 306 309 314 314 313 313 313 314 316 317 319 321 322 323 323 323 322 320 319 319 320 320 320 320 320 319 318 315 314 313 313 314 316
311 308 309 311 315 318 319 317 313 312 312 309 308 308 307 305 305 305 305 305 307 310 312 311 308 306 305 305 305 305 305 306 308 310 310 309 309 312 316 318 320 321 321 322 322 323 322 321 320 319 319 319 319 318 318 318 317 315 314 312 310 311 313
311 310 311 314 319 320 318 316 314 314 313 309 307 306 305 304 305 304 304 304 305 305 306 306 305 304 304 304 304 304 304 304 305 307 308 306 306 308 312 316 319 320 320 320 320 321 321 320 318 318 319 319 318 316 316 316 315 314 313 311 310 309 309
314 313 314 319 321 319 318 317 315 313 311 308 306 305 305 305 305 305 304 304 305 304 305 305 305 305 305 305 305 305 306 306 307 308 307 307 306 306 307 309 314 318 319 319 319 320 319 317 316 317 318 317 316 314 314 314 314 313 312 311 309 309 308
319 319 319 322 322 318 318 318 314 312 309 306 305 305 305 306 305 305 306 306 306 306 306 307 307 307 307 307 307 307 308 308 309 309 309 309 309 309 309 308 309 314 318 318 317 317 316 314 314 315 316 316 315 314 313 313 312 312 311 310 309 308 308
322 322 322 322 322 319 319 319 316 313 309 305 305 306 306 306 306 306 307 307 308 307 307 308 308 308 308 308 308 309 310 310 309 309 310 310 309 310 310 310 310 311 314 315 314 314 313 313 314 314 315 317 316 315 314 313 312 310 310 309 309 308 308
323 323 323 322 321 320 320 320 318 314 309 305 306 307 307 307 307 307 308 308 308 309 309 309 310 311 311 310 312 314 315 314 312 311 312 311 310 310 309 310 311 312 312 313 313 314 314 314 314 314 314 316 316 316 316 315 313 310 310 309 309 308 308
325 323 323 323 322 320 319 319 318 315 308 305 306 307 307 308 307 308 308 308 308 308 309 309 311 314 314 313 315 318 320 319 317 316 317 315 312 310 310 310 310 312 313 313 313 314 314 314 314 315 314 315 315 315 315 315 314 313 311 310 309 309 309
326 325 324 323 321 319 315 313 315 314 308 306 307 307 308 308 308 309 309 310 311 310 311 312 313 317 317 316 318 320 320 320 319 318 319 319 317 315 314 313 312 311 312 313 313 313 313 313 313 314 314 314 314 314 314 314 315 315 314 311 310 311 311
325 324 321 318 316 314 311 309 313 314 309 306 306 307 308 308 311 314 315 316 317 316 317 318 319 321 321 318 318 319 319 319 318 319 320 320 320 319 318 317 316 314 311 311 312 312 313 313 313 314 314 314 314 315 316 316 315 316 315 314 313 313 313
320 320 316 314 311 309 309 309 310 310 308 307 307 308 309 310 315 319 319 319 319 319 319 320 321 322 322 319 318 318 318 318 318 318 320 320 320 320 319 319 319 317 315 313 312 313 314 314 313 314 315 315 315 315 316 317 317 316 315 315 314 313 313
318 319 317 315 312 309 309 308 307 307 307 307 307 309 312 313 315 319 319 319 320 319 320 321 320 320 320 319 319 318 318 318 318 318 319 320 320 320 320 319 319 319 318 317 317 316 317 316 315 315 316 316 316 316 316 317 317 317 316 316 315 314 314
318 321 320 319 317 315 313 309 307 306 307 307 307 311 316 317 316 317 317 318 320 319 319 320 320 318 318 319 319 318 317 317 318 318 318 318 319 319 319 319 319 319 319 319 319 318 319 318 316 316 316 315 315 316 316 317 317 317 317 317 317 316 316
321 323 323 321 319 319 318 315 312 308 307 309 311 314 318 320 318 317 318 319 319 319 319 319 319 318 319 320 319 318 317 317 317 317 317 317 317 316 317 318 318 319 319 319 319 319 319 318 317 316 317 316 315 315 316 316 317 317 317 317 316 316 316
322 323 323 321 320 320 320 320 317 314 312 312 315 317 319 319 319 319 319 320 320 320 319 319 318 318 318 319 319 318 317 317 317 316 316 316 317 317 317 318 318 318 318 318 319 319 319 318 317 316 316 316 316 316 316 316 316 316 316 316 315 315 315
323 323 322 320 319 319 320 321 320 319 318 318 318 318 318 318 318 319 320 320 319 320 320 319 318 318 318 318 319 319 317 316 317 316 316 316 316 317 317 317 317 317 317 318 318 318 318 318 318 317 316 315 315 315 315 315 315 315 315 315 315 314 314
323 323 321 320 320 319 319 321 321 321 321 320 320 320 319 319 319 318 319 319 320 320 319 318 317 317 317 318 319 318 317 317 316 316 315 315 316 317 317 317 317 316 316 317 317 318 318 318 317 315 314 312 310 309 308 308 310 311 313 315 315 314 314
322 321 320 320 320 319 319 321 322 322 321 320 320 320 320 320 320 319 319 319 320 320 318 317 317 316 316 317 317 317 317 317 316 315 315 315 315 316 316 315 315 314 313 314 315 315 315 313 312 310 308 306 305 304 304 304 304 306 309 313 314 315 315
320 319 320 321 321 320 319 320 321 322 321 320 320 320 320 320 319 319 319 319 319 318 317 317 317 316 316 316 316 317 317 317 316 315 316 315 315 316 316 315 313 313 313 312 311 310 310 308 308 307 306 305 304 303 304 304 304 304 306 309 312 313 314
319 320 322 322 322 322 321 321 320 320 320 321 321 321 321 319 319 319 319 319 319 318 318 318 317 316 317 317 317 317 317 316 316 316 316 316 316 315 315 315 314 313 313 311 309 309 309 308 308 306 304 303 302 303 303 304 304 304 304 306 308 311 313
319 321 321 321 321 321 321 320 320 319 320 320 321 321 320 319 319 319 319 319 319 318 318 317 316 317 317 316 316 316 317 316 316 316 316 316 316 316 315 315 314 314 314 312 309 309 309 308 307 304 303 302 302 303 303 304 304 304 304 304 306 309 311
320 319 319 319 319 319 319 319 319 319 320 320 320 320 319 319 319 318 318 317 317 317 316 316 316 316 314 313 313 314 315 316 316 316 316 316 316 316 315 314 314 314 314 313 310 309 309 309 306 302 302 302 303 304 304 304 304 304 304 304 305 306 308
318 318 317 317 317 317 318 319 319 319 319 318 318 317 317 317 317 316 316 316 316 316 316 315 314 313 312 311 309 308 311 314 315 315 315 315 315 315 314 314 314 314 314 312 310 308 307 306 303 301 302 302 303 305 307 306 305 305 304 304 305 305 306
315 316 316 316 315 314 315 316 316 316 316 316 315 315 315 315 315 314 315 316 315 314 313 313 313 312 310 307 303 305 311 314 314 313 311 310 310 310 310 310 309 310 310 307 304 303 302 302 301 300 301 304 305 307 308 308 307 306 305 305 305 305 305
312 313 314 314 314 314 314 314 313 313 313 313 313 314 313 313 312 312 313 314 313 311 310 311 311 309 306 302 302 308 313 315 314 313 311 309 308 307 306 304 303 303 304 302 301 301 301 300 300 300 301 305 309 309 308 308 307 307 307 306 306 306 305
311 312 312 312 313 314 314 313 313 313 313 313 313 313 312 312 312 311 311 312 311 310 309 308 307 304 302 301 304 309 313 313 314 314 312 310 309 308 306 304 304 304 304 303 303 302 301 300 300 300 300 303 308 309 308 308 307 307 307 306 305 305 304
311 312 312 311 312 312 312 312 312 313 314 314 313 313 312 312 313 312 312 311 310 310 309 306 303 302 302 302 303 307 311 312 312 313 312 310 309 308 308 307 307 307 306 305 305 302 300 299 299 299 299 301 305 307 308 307 307 306 305 304 303 302 301
310 311 311 312 312 312 312 312 311 312 312 312 313 313 312 313 313 313 313 312 311 311 310 307 304 302 303 302 302 304 308 310 311 311 311 310 309 309 308 308 308 307 307 307 304 301 299 299 299 299 298 299 301 304 304 304 304 303 302 301 301 300 299
307 308 309 310 311 311 312 312 312 312 312 311 312 312 312 312 312 313 313 313 312 311 311 310 308 305 303 303 303 303 304 307 310 311 310 310 309 309 308 308 308 307 307 306 303 300 299 299 298 298 298 299 299 301 302 302 302 301 300 300 299 299 299
302 303 304 306 308 309 309 309 310 311 311 311 311 311 311 311 311 311 312 312 312 312 311 311 311 308 305 304 304 304 303 304 308 310 309 309 308 308 308 307 307 307 306 304 301 299 299 298 298 298 299 299 300 301 301 301 301 300 300 299 299 299 298

ECMWFFLT1_850_thetae_060.txt.gz
Theta_e
319 321 319 315 314 314 317 321 323 323 322 322 319 316 317 319 320 322 321 320 320 321 322 322 322 322 321 321 322 323 323 325 325 325 324 325 326 326 326 326 326 326 325 325 325 324 324 325 325 325 325 325 325 324 324 325 325 325 325 325 325 324 324
317 316 315 315 318 319 321 323 323 323 323 323 320 318 318 319 321 323 323 321 321 321 321 320 319 320 321 322 323 323 324 325 325 325 325 325 325 325 325 325 325 325 325 326 325 324 324 325 325 325 325 325 325 324 324 325 325 325 325 324 323 323 323
316 315 315 316 319 322 323 323 323 323 323 322 320 318 320 320 320 323 322 321 321 320 319 317 316 319 322 323 322 324 324 324 324 324 324 325 325 325 325 325 324 325 325 325 325 325 324 324 325 325 324 324 324 323 323 324 323 323 323 322 322 322 322
316 318 317 317 319 321 322 322 324 323 322 321 316 315 321 321 320 322 322 321 319 315 314 314 315 318 321 322 323 324 324 323 323 324 324 324 323 324 324 324 324 324 324 324 325 325 324 324 324 324 324 323 322 321 320 320 320 320 319 318 318 318 319
315 318 317 318 319 321 322 322 321 320 319 317 310 313 321 322 320 321 320 319 316 312 312 313 314 316 318 320 322 324 323 323 322 322 323 322 322 323 323 323 323 324 324 324 324 324 324 324 323 323 322 321 320 319 319 318 318 318 318 317 316 316 316
316 317 318 320 318 318 320 318 317 316 314 311 308 313 321 321 320 320 319 316 312 310 310 310 311 314 316 319 322 323 323 322 321 320 321 321 321 322 322 323 323 323 323 323 324 324 324 323 322 321 321 320 319 319 318 318 317 318 318 319 319 318 317
320 316 316 317 313 313 316 317 317 316 313 311 309 311 318 321 319 318 315 312 310 309 307 307 308 309 312 316 320 321 321 321 320 319 319 320 320 321 321 322 322 322 323 323 324 324 323 322 321 320 320 319 319 319 319 317 316 316 316 317 319 320 320
323 318 314 312 311 314 318 319 318 317 314 312 308 307 311 316 316 314 312 310 309 308 306 306 306 306 307 310 315 318 317 317 318 318 318 319 319 320 320 321 322 322 322 322 323 323 322 321 320 319 319 319 319 320 319 317 316 314 313 314 316 318 319
324 317 311 310 314 317 319 319 317 315 313 309 307 306 307 309 311 310 310 309 308 307 307 306 306 306 306 306 309 311 311 310 311 313 315 316 317 318 320 321 322 322 321 321 321 321 321 320 320 319 318 317 318 319 319 318 316 314 312 311 312 314 315
321 313 309 311 316 319 319 319 316 312 310 307 306 306 305 306 307 308 308 307 307 307 306 305 305 305 305 305 306 306 305 306 306 307 310 312 315 318 320 321 321 321 321 321 320 320 320 320 320 320 319 318 316 317 318 318 316 314 311 310 310 311 311
318 312 309 311 315 320 321 320 316 311 309 308 307 306 305 305 305 306 306 306 306 305 304 304 304 304 304 304 304 305 305 305 305 305 306 311 317 319 320 321 320 319 319 321 321 319 319 319 320 320 319 318 317 316 315 315 315 313 311 309 308 309 309
320 314 311 312 318 322 321 319 316 313 311 308 306 304 304 305 304 305 305 305 305 304 304 304 304 304 305 305 306 307 308 307 307 306 306 309 315 319 320 320 319 317 317 318 318 316 316 317 318 319 319 318 318 317 314 314 314 313 311 309 308 308 308
321 316 314 317 321 322 320 319 317 315 312 309 306 304 304 304 304 305 305 304 305 304 305 305 305 306 307 308 309 309 309 309 309 309 308 308 310 313 315 317 318 317 317 318 317 315 314 314 315 317 318 318 319 317 314 314 315 313 311 309 308 308 308
321 318 319 322 323 321 319 319 319 316 313 310 307 304 304 306 306 307 306 306 306 306 307 307 307 308 308 309 309 309 309 309 309 309 310 309 309 309 310 313 317 318 318 318 317 314 314 313 313 315 316 318 319 316 313 313 315 313 310 309 309 308 309
322 321 322 322 321 320 320 320 319 318 314 311 309 308 307 308 310 309 309 309 309 309 309 308 309 308 309 310 311 311 310 309 310 309 309 309 309 309 309 311 314 316 316 315 314 314 313 313 313 314 315 316 316 314 313 314 315 313 311 310 309 308 310
323 323 322 320 319 320 321 319 318 317 313 310 312 313 310 309 311 310 309 310 311 313 314 312 312 311 309 310 313 315 314 314 313 313 311 310 309 310 310 311 313 313 313 313 313 313 314 314 314 314 315 315 314 313 314 315 315 313 311 310 309 309 311
323 323 322 321 320 320 320 319 318 317 313 309 311 315 312 310 310 308 309 311 313 316 318 316 314 314 312 313 315 317 318 318 317 316 316 314 312 311 311 311 312 312 313 313 313 313 313 314 314 314 315 314 314 314 314 314 315 314 313 311 309 309 311
322 321 322 322 322 321 320 321 320 317 313 309 308 312 312 310 310 308 309 312 313 316 316 314 313 314 315 315 316 317 318 318 317 317 318 317 316 315 315 313 312 311 312 313 313 313 313 313 313 314 314 314 314 315 314 314 315 315 315 314 312 311 311
319 319 321 321 321 320 318 319 319 318 316 311 307 309 311 310 310 310 311 314 316 316 315 314 314 315 316 316 316 317 318 318 317 317 318 318 319 319 318 317 316 313 312 312 312 313 313 313 314 314 314 314 314 315 315 316 316 316 316 315 314 313 312
319 320 321 317 316 315 314 314 314 315 317 313 307 308 310 310 311 311 312 315 317 318 318 318 318 318 317 317 317 318 318 318 318 317 318 319 320 320 320 319 319 317 315 313 313 314 313 313 314 314 314 314 315 316 316 316 317 316 316 316 315 314 313
321 321 320 316 314 314 315 313 311 312 315 313 308 309 309 309 310 311 313 316 318 319 320 320 320 320 319 318 318 319 318 317 318 318 318 319 320 321 321 320 319 319 318 317 317 317 316 316 315 315 315 315 315 316 316 316 317 317 316 317 316 315 314
321 319 318 317 317 317 315 311 310 312 314 311 309 310 311 311 311 311 312 315 318 320 320 319 320 320 320 319 318 319 319 318 317 317 318 318 318 319 319 319 318 318 319 319 319 319 318 318 317 316 315 315 315 315 315 316 316 317 317 317 317 316 316
320 317 317 317 318 318 316 313 312 312 311 311 311 311 313 315 315 313 312 315 319 320 320 319 319 319 319 318 318 319 319 318 318 317 317 317 317 317 317 317 317 318 319 319 319 319 319 319 318 317 316 316 315 315 315 315 316 316 316 316 316 315 315
319 318 317 317 317 319 319 318 317 314 312 313 315 315 315 317 318 317 315 316 319 320 320 320 319 319 319 318 317 318 319 319 318 317 317 317 316 316 317 317 317 318 318 318 319 319 319 319 318 317 317 316 316 316 316 316 316 316 316 315 315 315 315
319 319 319 318 318 320 320 320 319 318 317 317 318 318 318 318 318 318 318 319 320 320 320 320 320 319 319 318 317 317 318 319 319 317 316 316 316 316 317 318 318 318 317 317 318 318 318 318 318 318 316 315 313 312 311 311 311 311 311 311 310 311 313
321 322 322 321 320 320 321 321 321 321 320 320 320 320 319 319 319 319 319 320 320 319 319 320 320 319 318 317 317 317 317 318 318 317 316 315 315 316 318 318 318 317 316 316 317 318 318 317 317 315 312 309 307 305 305 304 304 304 305 306 306 308 311
323 323 323 322 321 320 320 321 322 321 322 321 321 321 320 320 320 319 320 320 320 319 319 320 320 319 318 317 317 316 316 317 316 316 316 315 316 317 318 318 317 315 314 314 315 316 315 313 311 309 307 305 304 303 303 303 304 304 304 304 306 308 310
323 322 321 321 321 321 321 322 322 321 322 322 321 321 321 320 320 320 320 320 319 319 319 319 319 318 318 318 317 316 316 317 316 316 315 315 316 317 317 316 315 313 312 312 311 311 310 309 308 307 306 304 303 302 303 303 303 304 304 304 304 305 307
321 321 321 321 321 322 322 322 321 321 321 321 321 321 321 321 321 321 320 320 319 318 319 319 319 318 318 317 317 317 317 317 316 315 315 315 316 316 316 315 314 313 313 312 310 309 309 308 308 308 305 303 302 302 303 303 303 303 304 304 304 304 304
321 321 320 320 320 320 320 320 320 321 320 320 321 320 320 320 321 321 320 319 319 318 318 318 318 318 317 317 317 317 317 316 316 316 315 315 315 316 315 315 315 314 314 313 311 311 310 308 307 306 303 302 302 302 302 303 304 305 305 305 304 304 304
318 320 319 319 318 317 317 318 318 319 319 319 319 319 319 319 319 319 318 318 317 317 317 317 317 316 316 316 317 317 316 316 316 315 315 315 315 315 315 315 315 315 315 314 313 312 310 306 304 303 301 301 301 301 302 304 305 306 307 307 307 306 306
314 315 315 316 317 317 317 316 316 316 316 316 316 317 316 316 316 316 316 316 316 316 316 316 316 315 315 315 315 315 315 315 314 315 316 316 315 315 315 315 315 315 315 314 312 309 305 303 301 301 301 301 301 301 303 304 306 308 308 308 308 307 307
311 312 312 313 315 316 316 315 314 314 314 314 314 314 314 313 313 313 313 313 315 315 315 314 314 314 313 313 312 312 311 311 312 314 315 315 315 315 314 313 312 312 311 309 306 303 301 301 301 300 300 300 300 301 303 305 308 309 309 308 308 307 306
310 311 311 312 312 313 313 314 314 314 315 314 314 314 314 313 312 312 311 312 313 314 312 311 312 312 312 311 309 306 306 308 312 314 314 313 312 311 310 309 308 305 304 304 302 302 302 302 301 300 300 299 299 300 302 304 306 307 307 306 305 304 303
310 310 310 311 311 311 312 312 312 313 313 312 313 314 314 313 313 313 313 312 313 313 312 310 310 309 309 308 305 302 304 310 313 313 313 312 312 311 309 309 306 304 304 304 303 304 304 302 301 301 300 299 299 299 300 301 303 304 304 303 302 301 301
309 310 310 310 310 311 311 311 311 311 311 311 311 311 312 312 312 312 312 313 312 312 312 312 310 307 305 303 302 301 304 310 313 313 312 312 313 312 310 309 307 306 306 306 306 306 304 301 300 300 299 299 299 298 299 300 300 301 301 301 300 300 300
307 307 307 308 309 309 309 309 310 310 311 311 310 310 310 311 311 311 311 311 312 313 313 312 311 308 304 302 301 301 303 306 309 311 311 312 312 312 311 309 308 308 308 307 307 306 303 300 299 299 298 298 298 298 299 299 300 300 300 299 299 299 299

ECMWFFLT1_850_thetae_063.txt.gz
Theta_e
325 321 318 315 315 317 318 318 317 317 317 315 313 314 314 313 313 313 314 315 315 315 315 316 317 318 319 320 322 323 324 325 325 323 323 324 325 326 326 327 326 327 326 326 324 323 324 324 325 325 325 325 325 325 325 325 325 325 325 325 324 323 323
325 321 318 316 316 317 318 318 318 318 318 317 314 313 313 312 312 313 314 315 315 315 316 318 319 317 317 319 321 322 323 324 324 324 323 324 325 326 326 326 326 326 326 325 325 324 323 324 324 324 324 325 324 325 325 325 325 325 324 323 323 323 323
322 320 319 317 317 319 320 320 320 320 321 321 318 314 314 315 316 316 316 317 316 317 318 319 318 316 317 319 321 322 323 324 324 324 324 324 325 326 325 325 325 325 325 325 324 324 323 323 324 324 324 324 324 324 324 324 324 323 322 322 321 322 322
318 317 317 315 316 319 320 321 321 322 322 321 319 315 315 317 318 318 318 317 316 316 315 315 315 315 317 319 320 321 323 323 323 323 324 323 324 324 324 325 325 324 324 324 324 324 324 323 324 324 324 323 323 322 321 320 320 319 319 319 319 319 320
316 314 313 311 313 316 318 319 321 321 320 320 318 313 313 317 317 317 317 316 315 313 311 312 314 316 317 318 319 321 322 322 323 323 323 323 323 323 324 324 324 324 324 324 324 324 324 323 323 323 323 322 320 319 318 318 317 317 317 317 317 318 318
318 312 311 310 312 314 315 316 318 318 318 318 315 311 314 318 318 317 317 316 313 309 310 313 314 316 318 319 320 321 322 322 323 323 323 323 323 323 323 323 323 323 324 324 324 324 324 323 323 322 320 319 318 318 318 318 318 318 318 317 317 317 317
320 313 312 311 312 314 315 316 314 314 315 314 311 312 317 319 319 318 317 314 310 306 309 312 314 316 319 321 322 322 322 322 322 323 322 322 322 322 322 322 322 322 323 324 324 324 324 324 323 321 319 318 317 317 317 317 317 318 318 319 319 319 319
319 314 315 315 314 315 317 318 313 311 312 311 310 314 318 319 318 318 316 313 308 305 306 308 311 315 320 322 323 322 321 320 320 321 321 321 322 321 322 322 322 322 322 323 323 323 324 323 322 320 319 318 316 315 315 315 315 316 317 318 318 319 319
318 317 318 319 319 318 318 319 315 311 311 310 309 312 316 318 318 318 316 312 309 307 306 306 308 312 318 321 322 321 320 318 318 318 319 320 320 320 321 322 322 322 322 322 322 323 323 322 321 320 319 317 315 314 314 313 312 313 314 316 316 317 316
321 321 320 321 322 319 318 319 317 311 308 307 307 309 314 317 318 317 315 312 310 309 307 305 305 307 312 317 318 319 319 317 317 317 318 318 318 318 320 322 321 321 321 322 322 322 322 320 320 319 317 316 314 313 313 312 311 310 311 312 313 314 313
325 324 323 322 320 318 319 321 320 314 308 306 307 308 310 313 316 316 314 312 311 310 307 305 305 305 307 310 312 312 312 312 314 316 316 316 317 318 319 321 321 320 319 320 321 321 320 319 319 318 317 316 316 315 313 312 311 309 308 309 311 312 311
327 326 325 321 317 318 321 321 318 313 308 307 307 307 307 308 310 312 312 312 311 309 306 304 305 305 305 306 307 306 306 306 308 312 314 316 318 319 319 319 320 320 319 320 320 320 319 318 318 317 317 317 316 316 314 313 313 311 308 307 308 309 309
327 326 323 319 317 320 322 319 314 310 308 308 308 306 306 306 307 309 310 310 309 307 305 304 304 304 304 305 306 305 305 305 306 310 314 317 318 319 319 318 319 320 320 320 319 319 319 318 318 318 318 317 317 317 316 314 314 312 308 307 307 308 308
326 323 321 319 319 320 320 317 312 309 308 307 307 305 305 305 306 307 308 307 306 304 303 304 304 305 306 307 307 307 306 306 306 309 314 317 318 319 319 317 317 319 319 319 318 317 317 316 317 317 317 317 317 318 317 314 314 313 310 308 308 308 308
324 322 321 320 320 320 319 316 312 309 307 307 305 304 304 304 305 306 306 305 304 304 305 306 306 307 308 309 309 309 308 308 308 308 310 314 315 317 319 318 317 317 317 318 317 316 315 315 315 316 316 317 317 318 318 315 313 314 312 309 308 308 309
323 322 321 320 321 321 320 317 315 310 307 306 305 304 304 304 304 305 305 305 305 305 306 307 308 308 309 309 309 309 309 309 309 309 309 309 311 313 315 317 317 317 317 317 317 317 316 316 316 315 315 316 316 317 319 316 313 313 313 311 309 308 309
323 322 321 322 322 320 320 319 316 311 307 306 305 305 305 305 305 305 306 307 307 307 308 308 309 309 309 309 309 309 309 309 310 310 309 309 309 310 312 314 315 316 316 315 315 316 315 314 314 314 314 315 316 318 318 315 313 313 313 311 310 308 310
322 321 322 322 320 319 320 319 315 310 308 307 305 306 307 306 306 307 307 308 308 308 308 308 308 309 309 310 311 312 313 313 314 314 312 311 310 309 310 312 313 314 314 314 313 313 313 313 313 314 314 315 316 317 316 314 314 314 313 312 310 310 311
321 321 323 322 320 319 317 314 312 311 311 310 307 306 307 307 308 308 308 309 309 309 309 309 309 309 309 310 311 314 317 317 317 316 316 315 314 312 311 312 312 312 313 313 313 313 313 313 314 314 314 314 314 314 314 314 315 315 314 313 312 312 312
320 321 322 319 316 315 312 311 313 314 314 312 309 307 307 307 308 308 308 309 310 310 310 310 311 311 312 312 312 314 317 318 317 316 316 317 316 316 316 316 316 315 313 313 313 313 313 313 313 314 314 314 314 314 314 314 314 315 315 314 314 313 312
320 320 319 315 312 312 311 313 317 317 315 313 311 309 308 307 307 308 308 310 311 312 313 313 313 314 316 316 315 315 316 317 318 317 317 317 317 317 317 318 319 318 317 316 314 314 314 314 314 313 314 314 314 314 315 315 315 316 316 315 314 313 313
320 320 318 315 312 312 314 317 317 315 313 312 312 311 309 307 308 309 310 312 314 315 316 317 318 318 319 319 318 317 317 317 318 318 317 317 317 318 318 318 319 319 319 319 317 316 316 316 316 315 314 314 315 315 315 316 316 316 316 316 315 315 315
321 319 316 313 311 314 318 319 315 313 313 313 312 311 309 308 310 312 314 316 317 317 319 320 320 320 320 320 319 319 318 318 319 318 318 318 318 318 318 318 319 319 320 319 319 318 318 318 318 317 315 315 315 315 315 316 316 316 316 316 316 316 316
321 319 317 315 315 318 318 316 313 314 314 313 311 309 308 308 310 313 315 317 317 317 318 319 320 321 320 319 319 319 319 318 319 319 319 319 318 317 317 317 318 318 318 318 318 319 319 319 319 318 316 316 315 315 315 315 315 315 315 316 316 316 316
321 321 321 319 318 318 316 314 313 313 311 310 308 307 307 308 310 313 315 317 316 315 316 318 320 320 320 319 319 319 319 318 318 319 320 320 319 318 317 317 317 317 317 317 317 318 319 319 319 319 318 317 316 315 315 315 315 315 315 316 316 316 315
321 321 320 319 319 318 318 317 315 313 312 310 307 307 308 310 312 315 318 318 317 316 316 318 320 320 320 320 320 319 319 318 317 317 318 319 319 319 318 317 317 317 317 317 317 318 319 319 319 319 318 318 317 316 316 315 315 315 314 313 313 313 312
320 320 320 320 320 320 320 320 318 317 316 314 311 311 312 312 314 317 318 319 319 318 318 318 320 320 320 320 320 319 318 317 316 317 317 317 318 318 317 316 316 317 318 317 318 318 318 318 318 318 318 318 317 315 312 311 309 308 307 306 306 306 307
321 321 321 321 320 321 321 320 319 319 319 318 316 315 316 317 317 318 319 320 320 319 319 319 320 320 320 320 320 319 318 317 317 317 316 316 316 316 316 315 316 317 318 317 317 317 317 318 318 318 317 316 312 308 306 304 304 303 303 303 303 304 304
322 321 322 321 320 320 320 319 319 319 319 320 319 317 318 319 319 320 320 319 319 319 319 319 320 319 320 319 319 319 318 318 318 317 317 316 316 316 316 316 317 317 317 317 317 317 317 317 316 314 312 309 306 304 303 303 303 303 303 303 303 303 303
321 321 321 321 321 321 320 320 320 319 319 320 320 319 318 318 319 319 318 318 317 318 318 319 319 319 319 319 319 319 318 318 317 317 316 316 316 315 316 317 317 317 315 315 314 314 314 313 312 309 308 307 305 303 302 302 302 303 304 304 304 304 303
319 319 320 320 320 320 320 320 320 320 319 320 320 320 319 319 319 319 320 319 319 319 319 319 319 319 319 319 319 318 318 317 317 317 317 316 315 315 317 317 317 316 314 313 312 311 310 309 309 308 307 307 305 302 301 302 303 303 304 304 304 304 304
315 315 316 316 317 318 319 319 319 320 319 319 319 319 319 319 319 319 320 319 319 319 319 318 318 318 318 317 317 317 316 316 316 317 317 316 315 315 316 317 316 315 314 314 313 312 310 310 309 307 305 304 302 301 302 302 303 303 304 305 306 306 306
312 312 313 313 314 315 316 317 317 317 317 317 317 317 317 317 317 317 317 317 317 317 316 316 316 316 316 316 316 316 316 316 316 317 316 316 315 315 315 316 316 315 315 315 314 313 313 311 309 305 302 301 301 301 301 302 302 303 304 306 306 307 306
310 311 311 311 312 312 313 314 314 315 315 315 315 315 315 315 314 314 314 314 314 314 315 315 315 315 315 316 315 315 315 315 315 316 316 316 315 315 315 315 315 315 315 315 314 314 313 309 304 302 301 301 300 300 301 301 302 302 303 304 305 304 304
310 310 310 310 310 311 311 311 312 313 314 314 314 314 314 314 313 313 313 313 313 313 314 314 314 314 315 315 314 314 314 313 313 313 314 314 314 313 314 314 315 315 314 314 314 313 309 304 302 301 300 300 300 300 300 300 300 300 301 301 301 301 301
309 310 310 310 310 311 311 311 311 311 312 312 312 312 312 313 313 314 314 313 313 313 314 314 313 312 313 314 314 314 313 313 312 311 310 310 309 310 312 314 314 313 312 312 311 309 304 302 301 301 300 300 300 300 300 299 299 299 299 299 299 300 300
308 308 309 309 309 310 310 311 311 311 311 311 311 310 310 311 312 312 312 312 312 312 313 314 314 313 313 313 313 313 312 311 308 306 306 306 306 310 313 313 312 310 309 309 308 304 302 303 303 301 300 300 300 299 299 299 298 298 298 298 299 299 299

ECMWFFLT1_850_thetae_069.txt.gz
Theta_e
326 326 326 326 326 326 326 325 324 325 326 325 325 325 325 325 325 325 325 325 325 325 324 323 324 324 324 324 324 325 326 326 326 326 326 327 327 327 326 326 326 326 326 325 325 326 326 326 325 325 324 325 326 326 325 325 324 324 323 323 323 323 323
326 327 326 325 326 326 326 325 325 326 326 325 324 325 324 324 324 323 323 323 322 322 321 321 322 322 323 322 322 323 324 325 326 326 327 327 328 327 327 327 326 326 326 326 325 325 325 326 325 325 324 325 325 325 325 324 324 324 323 322 322 322 322
325 326 326 326 326 325 325 325 325 324 322 321 322 323 323 321 321 320 319 319 319 319 320 320 321 321 321 321 320 320 323 325 325 326 326 326 327 327 327 327 327 326 326 326 325 325 325 325 325 325 324 324 324 324 324 324 323 323 322 322 321 321 322
325 326 325 324 324 323 324 323 321 318 316 316 318 319 319 317 317 317 317 316 316 318 319 319 320 320 319 320 320 320 322 323 325 325 324 325 325 326 327 327 326 326 326 326 325 325 325 325 325 324 324 324 323 324 323 322 321 321 321 321 321 322 322
325 325 322 320 319 319 319 318 316 314 314 315 316 316 316 315 315 316 316 316 316 316 317 317 317 317 318 321 322 322 322 323 325 324 324 324 325 325 326 326 325 325 325 325 325 324 324 325 325 324 324 323 323 322 321 319 319 319 321 321 321 321 321
325 324 320 316 315 316 317 317 316 315 315 315 315 315 315 315 316 316 316 316 315 314 314 313 314 317 319 321 323 323 323 324 324 324 324 324 324 324 325 325 325 325 325 325 324 324 324 324 325 324 323 323 322 321 319 318 318 319 319 319 318 318 318
326 324 321 317 313 315 318 318 318 318 318 317 315 315 315 316 317 317 316 314 311 310 311 312 315 318 320 320 322 322 323 323 323 323 323 323 323 323 323 323 324 325 325 324 324 323 323 324 324 324 322 321 321 320 319 318 318 318 318 318 318 319 319
326 324 322 319 315 315 319 319 319 319 317 316 315 314 315 316 317 317 316 311 307 308 311 314 317 319 319 320 322 322 322 322 322 322 322 321 321 321 322 322 323 324 324 324 324 324 323 323 323 322 320 320 320 319 319 318 318 318 318 319 320 319 318
325 323 321 320 317 316 318 320 319 317 315 314 313 314 316 317 318 317 314 309 306 307 311 314 316 318 319 321 321 321 321 321 320 320 320 320 320 320 321 322 322 323 324 324 324 324 323 323 322 320 317 318 319 320 319 319 318 318 318 318 318 316 314
326 323 320 318 318 318 320 321 319 316 313 312 313 316 317 318 318 316 312 308 306 306 308 311 314 316 319 321 321 320 320 319 318 318 318 316 316 318 321 321 322 323 323 324 324 323 323 323 321 316 315 316 317 318 320 320 319 318 317 316 315 313 310
327 324 319 317 317 319 321 322 321 317 313 311 313 317 318 317 317 314 310 308 306 305 306 308 312 314 317 320 320 319 318 317 317 316 315 314 314 318 321 321 321 322 322 322 323 322 322 322 319 314 314 314 313 314 316 318 318 317 316 314 312 310 307
327 324 319 317 318 320 321 321 321 319 315 311 312 316 317 317 315 311 309 307 305 305 305 306 309 312 315 318 319 319 318 317 316 314 314 316 317 319 320 320 320 321 322 322 322 321 321 321 317 314 316 315 313 312 312 314 315 314 313 312 310 308 307
328 325 320 319 320 320 320 320 321 318 315 311 310 313 315 314 311 308 307 306 305 305 305 305 307 309 313 315 315 315 314 313 313 312 314 317 317 318 319 320 319 320 321 321 321 320 320 320 317 315 317 317 316 314 312 312 312 311 311 311 309 308 308
328 325 321 321 322 321 320 321 321 317 314 311 308 308 309 309 308 307 306 306 305 305 305 305 306 307 309 309 309 308 307 308 309 311 314 316 315 316 318 319 319 319 320 320 319 319 319 319 318 317 317 318 318 317 314 312 311 309 309 310 309 308 308
328 325 322 322 323 322 320 321 320 316 312 310 307 306 306 306 306 306 305 305 305 305 305 304 305 305 305 305 305 305 305 307 309 312 315 315 315 316 317 318 319 319 319 318 318 318 318 318 318 317 316 317 318 319 317 315 312 310 309 309 309 309 309
327 325 323 323 324 322 321 321 319 314 310 308 306 305 305 305 305 305 305 305 305 304 304 304 304 305 306 306 306 306 307 309 310 313 315 316 316 316 316 317 318 318 318 318 318 317 317 317 316 315 315 315 316 317 318 318 316 312 310 308 308 308 309
327 325 324 324 324 322 320 320 318 312 309 307 305 304 305 304 304 305 305 305 304 304 304 305 306 307 308 308 307 307 308 308 309 311 313 314 315 316 316 316 316 317 317 317 317 316 316 315 314 314 314 315 315 315 316 318 318 315 312 309 309 308 310
327 325 325 325 324 321 320 320 317 312 308 307 305 304 304 304 304 305 305 305 304 304 305 306 308 309 309 309 309 309 309 309 309 310 310 311 311 312 313 315 316 316 316 316 315 314 314 314 314 314 314 314 314 314 314 315 318 318 314 311 309 309 310
326 326 325 325 323 320 320 320 317 313 309 307 305 304 304 304 305 305 305 305 305 305 306 308 309 309 309 309 309 309 309 310 310 311 311 311 311 311 311 312 312 314 314 314 314 314 313 313 313 313 313 313 313 314 314 314 317 319 317 312 310 309 309
326 326 325 324 322 320 321 321 318 315 312 307 305 304 304 304 305 305 306 306 306 307 308 308 309 309 309 309 309 310 311 312 313 315 316 316 316 315 314 314 313 313 314 314 314 313 313 313 312 312 313 313 313 313 314 315 317 319 318 313 310 309 309
325 325 324 323 322 321 321 320 318 317 314 310 307 306 305 305 305 305 306 306 307 308 308 309 309 309 309 309 310 312 313 315 316 318 318 318 317 317 317 316 316 316 317 317 316 316 315 315 314 314 313 313 313 313 314 315 317 318 316 313 311 310 308
325 324 323 323 321 321 322 321 319 318 316 314 312 309 307 306 305 305 306 306 307 308 308 309 308 308 309 309 311 314 316 316 317 318 318 318 318 317 317 317 317 317 317 317 317 317 317 317 317 317 316 315 313 313 313 314 315 315 314 313 313 311 309
325 323 323 322 321 322 322 319 318 317 315 315 315 312 310 309 307 306 306 306 307 308 308 309 308 309 309 310 313 317 319 319 319 319 319 319 318 319 318 318 318 318 318 317 317 317 317 317 317 317 318 317 315 313 313 313 314 313 313 313 314 314 312
323 322 322 321 321 321 319 314 313 314 314 314 314 314 315 314 311 309 308 307 307 308 308 309 310 310 310 311 315 318 320 320 320 320 320 320 319 319 319 319 319 319 319 319 318 317 317 316 316 316 317 317 317 315 314 313 314 314 314 314 315 315 315
322 323 323 322 321 321 319 314 311 312 313 313 313 315 318 318 315 313 311 308 308 308 308 309 310 310 310 312 316 320 320 320 320 320 319 319 319 319 319 318 318 318 318 319 319 319 318 318 317 317 317 317 318 318 316 315 314 314 314 315 315 315 315
323 322 322 322 321 321 320 317 314 313 312 313 315 317 319 319 317 315 313 312 311 311 311 310 310 311 313 315 317 319 320 320 320 319 319 319 319 319 319 318 317 317 317 317 317 318 318 318 318 318 317 317 318 318 318 317 316 315 315 315 315 315 315
322 321 321 321 321 320 320 319 318 315 313 314 318 320 319 318 316 314 313 312 313 314 314 315 315 316 317 318 319 319 320 320 320 320 319 319 319 319 319 318 317 317 317 317 317 317 317 317 317 317 318 318 318 318 319 318 316 316 315 315 315 315 315
320 321 321 321 320 320 320 319 318 314 313 316 320 320 320 318 316 314 313 314 315 315 315 316 317 319 319 319 319 319 319 319 320 320 319 319 319 319 319 318 318 317 317 317 317 317 316 316 316 317 318 318 318 319 319 317 316 316 316 315 315 315 315
320 320 320 319 319 319 319 318 317 315 316 319 321 320 320 318 315 314 314 314 314 314 313 314 317 318 319 319 319 319 319 319 319 320 319 319 319 319 319 319 318 317 317 317 317 316 316 315 316 317 318 318 318 319 318 318 318 317 317 317 316 315 314
321 320 319 318 318 319 318 318 317 318 319 320 320 319 319 317 315 314 314 314 315 315 316 317 317 318 318 319 319 319 319 319 319 320 320 320 320 319 319 318 318 318 318 317 317 316 315 315 316 317 318 318 319 319 319 319 318 318 318 317 314 311 309
319 319 319 319 319 319 319 319 319 319 319 319 319 319 319 318 317 317 317 317 317 317 318 318 319 319 319 319 319 318 317 317 318 319 319 319 319 319 319 318 318 318 318 317 316 316 315 316 317 317 318 318 319 319 318 318 318 317 315 312 307 305 304
318 318 319 319 318 318 318 319 319 319 319 319 319 319 320 320 319 319 318 318 318 317 317 317 318 319 319 318 318 317 316 317 317 318 319 319 319 319 319 318 318 317 317 316 316 315 316 316 317 318 318 318 318 318 318 316 314 311 308 305 303 303 303
314 314 315 316 316 317 317 317 318 318 318 318 319 319 319 319 319 319 318 318 318 317 316 316 316 318 318 318 318 317 318 318 318 318 318 318 318 318 317 317 316 316 316 316 316 315 316 316 316 317 317 317 317 316 314 312 309 306 304 303 303 304 304
310 310 310 311 312 313 313 314 314 315 315 315 315 316 317 317 317 317 317 317 317 317 317 316 317 317 318 318 318 318 318 317 317 317 316 316 316 316 316 316 316 316 316 316 316 316 316 316 315 314 314 315 314 313 311 309 307 306 304 304 305 305 305
306 307 307 308 309 309 310 310 310 311 311 311 311 312 312 313 313 313 314 314 314 315 315 316 315 315 315 315 315 316 316 316 315 315 315 315 315 316 316 316 316 316 316 316 316 317 317 317 315 313 313 313 312 312 311 309 307 305 305 305 306 307 307
305 305 305 306 306 307 307 307 308 308 309 309 310 310 310 310 311 310 310 311 312 313 313 313 313 313 313 314 314 314 315 315 315 315 315 315 315 315 315 315 315 315 315 315 316 316 317 318 316 314 313 313 313 313 313 310 306 304 306 307 307 307 308
304 304 305 305 305 305 305 306 306 307 308 309 309 310 310 310 310 310 310 310 310 311 311 312 312 312 312 312 312 313 313 314 314 314 314 313 313 314 314 314 314 314 313 313 313 314 316 317 317 315 314 314 314 314 313 310 306 304 306 307 307 308 308

ECMWFFLT1_850_thetae_072.txt.gz
Theta_e
332 330 330 330 330 330 330 330 330 329 329 328 327 328 327 327 327 327 327 327 327 326 325 325 325 325 326 327 328 329 331 331 329 330 330 329 329 328 326 328 328 328 329 329 329 328 328 328 328 327 327 327 327 327 327 327 327 326 325 325 325 325 324
332 329 329 329 329 330 329 330 330 329 328 328 327 326 326 327 326 327 326 326 326 325 325 326 325 325 326 325 326 326 328 329 328 329 330 329 329 329 327 327 329 328 328 329 330 328 328 329 328 327 327 327 326 326 326 326 325 324 324 324 324 323 324
330 329 328 327 329 330 330 329 327 326 326 327 326 325 325 324 323 323 323 322 322 320 322 324 324 324 324 324 325 324 324 326 328 328 328 328 328 328 328 328 328 328 328 329 329 329 328 328 328 327 326 327 326 326 325 324 324 324 323 323 323 323 324
329 329 328 327 328 330 330 328 325 324 325 326 325 323 323 322 320 319 320 320 319 318 319 321 322 322 321 320 322 322 322 324 327 328 327 327 326 327 328 328 328 327 328 328 328 329 328 328 328 328 327 326 326 325 324 323 323 324 324 323 323 323 324
328 329 329 327 328 329 329 328 326 326 326 326 325 323 321 319 317 317 317 319 318 317 319 320 320 320 319 317 318 320 322 323 324 326 328 327 326 327 328 328 327 328 328 329 328 328 328 328 328 328 326 325 324 324 324 323 323 323 324 323 323 323 323
326 328 328 326 327 328 328 327 326 325 325 324 323 321 317 314 315 315 316 319 319 319 320 319 317 317 317 318 319 321 324 323 323 326 329 327 326 328 329 328 328 329 329 329 329 328 328 327 328 327 325 324 324 324 323 322 322 322 322 322 322 323 323
326 327 326 324 326 326 325 324 323 323 321 319 317 316 313 313 317 317 316 317 318 317 316 314 314 315 318 321 322 322 324 323 323 326 327 325 325 328 330 329 329 329 329 329 328 328 328 327 327 326 325 325 324 323 322 321 321 321 321 321 321 322 322
327 326 324 323 321 319 318 318 319 319 316 315 316 316 314 316 318 316 313 311 310 310 311 312 316 318 320 322 323 323 323 323 323 324 324 323 323 325 327 329 329 329 329 328 328 328 327 327 327 325 324 323 322 322 321 320 320 320 320 319 320 321 320
328 325 323 320 315 313 314 316 319 319 316 316 319 317 316 317 316 312 309 306 306 309 313 316 319 321 321 322 322 322 322 322 321 322 322 321 321 322 323 326 328 329 328 328 328 328 327 326 326 324 322 321 321 321 321 320 320 319 319 318 318 318 318
326 323 321 317 314 315 317 320 321 320 318 318 317 315 316 317 314 310 308 305 306 310 315 318 320 321 321 321 320 321 320 320 320 320 321 320 321 321 322 324 328 329 327 327 328 327 327 326 324 323 322 321 320 321 320 320 319 318 318 317 316 315 315
325 322 319 317 317 318 320 322 322 319 317 316 314 314 317 316 313 311 307 304 306 310 315 318 319 320 321 320 319 319 318 319 319 318 318 317 318 321 321 323 327 328 326 327 327 325 325 324 322 321 321 320 319 319 319 319 319 319 317 317 315 314 312
326 323 320 318 318 319 322 323 322 317 314 312 312 315 318 317 313 310 307 305 305 308 312 316 318 319 320 319 319 319 318 318 318 316 316 317 317 319 320 322 325 326 324 325 324 322 323 323 321 319 318 318 318 318 318 318 319 318 317 316 314 312 311
326 323 320 318 318 319 321 323 322 316 311 310 313 317 319 318 314 309 307 305 305 306 308 313 318 318 318 319 319 318 317 317 317 317 318 319 318 319 319 321 323 323 323 324 322 321 322 321 320 319 318 317 317 317 316 316 317 318 318 316 313 311 310
327 324 319 318 318 318 319 322 322 316 310 310 314 319 321 320 317 313 310 307 305 305 306 311 316 318 318 317 316 315 315 316 317 318 319 319 320 320 320 321 322 322 323 324 321 321 322 321 320 320 319 318 317 317 316 315 315 317 317 315 313 311 310
327 325 320 319 321 320 320 322 321 317 313 310 313 319 321 320 319 318 315 311 307 306 306 309 314 317 316 312 309 310 314 316 317 318 318 319 319 319 319 320 320 321 323 323 322 321 321 320 319 319 319 319 318 318 317 315 315 316 315 313 312 312 310
328 326 321 320 322 323 322 322 321 319 317 314 315 320 321 321 320 319 318 314 309 307 307 307 311 314 312 308 307 309 314 316 317 318 318 318 318 319 320 319 318 319 320 320 321 321 321 320 319 319 319 319 319 319 318 317 316 316 315 313 313 313 311
329 326 323 321 322 323 322 322 321 321 320 318 318 320 320 319 320 319 317 314 309 307 306 305 308 310 310 311 311 312 314 316 317 318 318 317 318 319 319 319 319 318 318 319 320 320 320 320 320 319 319 320 320 320 319 318 317 317 316 315 314 313 312
329 327 324 323 323 323 321 322 322 322 320 319 318 318 317 317 319 319 317 314 310 307 305 305 307 309 310 312 313 313 314 315 316 317 316 316 317 317 318 319 319 319 319 320 320 320 320 319 319 319 319 319 319 319 318 318 318 317 317 316 315 314 313
328 326 324 324 324 323 322 322 322 321 320 319 318 315 313 312 314 316 317 315 311 308 306 307 309 309 309 310 311 311 312 313 314 315 315 315 316 316 316 316 316 317 319 319 320 320 319 319 318 318 318 317 317 318 317 317 318 318 318 317 315 315 315
326 325 324 324 324 323 322 321 322 320 319 318 317 315 312 308 309 313 316 315 311 308 308 309 309 310 310 310 310 310 310 311 313 314 315 317 318 317 317 316 314 314 316 317 318 317 316 316 316 316 317 316 316 317 317 317 318 319 318 317 316 316 316
325 325 324 323 323 323 322 321 321 320 318 318 316 315 312 308 308 313 315 314 310 307 308 309 310 311 312 312 311 311 312 313 315 315 317 318 318 318 319 318 318 318 318 317 317 317 316 316 317 317 317 316 316 316 317 319 319 319 319 318 317 316 316
325 325 324 322 322 323 322 321 320 318 317 317 316 315 313 310 308 309 310 310 308 306 308 311 311 312 315 315 314 314 314 315 317 318 319 319 318 318 319 319 319 319 319 318 317 317 317 318 318 319 319 318 317 317 318 319 319 319 319 319 317 316 315
325 324 323 323 323 322 322 321 319 317 316 316 314 313 312 310 307 306 307 308 307 306 308 310 310 310 312 314 316 317 315 316 318 319 319 319 319 318 319 320 319 318 318 318 318 317 317 317 317 318 318 318 318 318 318 319 319 319 319 319 318 316 315
325 323 322 323 323 322 322 321 320 317 316 317 315 312 311 309 307 307 309 310 307 307 308 308 308 308 309 310 314 318 319 320 319 319 320 321 321 320 320 320 319 318 318 318 317 318 318 317 317 317 317 317 317 317 318 318 318 318 318 317 317 316 316
324 323 322 320 321 322 322 320 319 316 315 317 317 315 313 311 308 308 310 310 309 309 309 309 310 310 310 311 313 317 322 323 321 321 321 321 322 323 322 321 320 319 318 318 317 317 317 317 317 317 317 317 317 317 317 317 317 317 317 317 316 316 316
322 323 322 320 320 322 321 318 316 312 311 315 317 316 315 314 312 310 310 309 309 311 311 311 311 311 312 313 313 316 321 323 323 322 323 322 323 324 324 323 322 321 319 318 317 317 317 317 317 317 317 317 318 318 317 316 317 317 316 316 316 316 316
321 322 321 321 321 321 320 318 316 312 310 311 314 316 318 318 317 315 313 312 313 314 313 313 313 311 311 313 315 317 319 321 322 322 323 323 323 323 324 323 323 322 322 321 318 317 317 317 318 318 317 317 317 317 317 317 317 317 317 316 316 317 317
320 321 320 320 320 320 319 318 317 315 312 311 311 313 317 319 319 317 316 315 315 315 314 314 313 313 313 314 316 318 319 319 319 319 320 321 321 321 322 321 321 321 321 322 320 318 317 317 318 319 319 318 318 318 317 317 317 318 318 317 316 317 317
320 320 320 320 319 320 319 318 316 315 313 312 313 313 315 319 319 318 317 315 315 315 315 315 315 314 314 316 317 319 319 319 318 318 318 319 319 320 320 320 320 320 320 321 320 318 318 318 318 319 320 320 319 318 317 317 318 318 318 318 317 316 316
320 320 319 319 319 319 319 318 317 316 315 315 315 315 316 319 319 319 317 316 317 317 316 316 316 315 316 317 318 319 319 319 319 319 319 319 319 320 320 320 320 320 319 320 319 318 318 318 317 317 319 320 319 317 317 317 318 318 318 318 317 317 317
318 318 318 318 318 319 319 319 318 318 318 318 318 317 318 320 319 319 318 317 318 319 318 317 318 317 317 317 318 318 319 319 319 319 319 319 318 319 320 319 319 319 319 319 319 318 318 317 316 316 318 319 319 318 317 318 318 319 318 318 318 318 318
316 317 317 317 318 319 319 319 319 318 319 319 319 319 319 319 319 319 319 318 318 318 318 318 318 318 318 318 318 319 319 318 319 319 319 319 319 318 319 319 319 319 319 319 318 318 317 316 315 316 318 319 319 318 318 318 318 318 318 317 317 317 316
314 315 315 315 315 316 317 318 318 318 318 318 318 318 317 318 318 318 318 318 318 318 318 317 317 317 317 317 317 318 318 319 319 319 320 320 320 319 319 320 319 319 318 317 317 316 316 316 315 317 318 319 319 318 318 318 318 317 317 316 314 312 310
311 312 312 312 312 312 313 314 314 315 316 315 316 315 315 315 316 316 316 316 317 317 317 316 316 317 317 317 317 317 317 317 318 318 318 317 318 318 319 318 318 317 317 316 317 316 316 316 316 317 318 318 318 318 317 317 316 315 314 312 310 308 307
307 308 308 308 309 309 310 310 311 311 312 312 313 313 312 312 313 313 314 314 315 314 314 314 315 316 316 315 315 316 315 315 315 316 315 314 314 316 316 316 316 316 316 316 316 316 316 316 316 317 317 317 317 316 316 316 314 312 311 309 307 307 307
307 307 307 307 307 307 307 308 308 309 309 309 309 310 311 310 310 310 311 311 312 311 311 312 312 313 313 313 313 313 313 313 314 314 314 314 314 314 314 314 315 315 315 315 315 315 315 316 316 316 316 317 316 315 315 315 312 310 308 307 307 307 306
308 308 307 307 307 306 306 305 306 306 307 307 307 307 307 307 307 307 307 308 308 308 308 309 309 310 310 311 311 312 312 312 312 312 312 312 313 313 313 313 313 312 313 313 314 314 314 314 314 315 315 316 316 315 314 313 311 309 308 307 307 307 306

ECMWFFLT1_850_thetae_075.txt.gz
Theta_e
331 331 331 330 332 333 332 332 331 330 331 331 330 330 329 328 327 327 326 327 328 328 328 329 329 329 329 329 330 329 330 329 328 329 330 330 331 330 329 329 329 328 328 328 328 329 329 329 328 328 328 328 328 328 328 328 328 327 327 327 327 327 326
330 329 329 329 331 332 330 330 331 331 331 330 329 329 329 327 326 328 328 327 328 329 329 330 330 329 328 328 327 327 328 328 328 328 330 330 331 331 329 329 329 329 329 330 329 328 328 329 329 328 328 327 327 327 327 327 327 326 326 325 325 326 326
329 327 328 330 331 330 330 331 332 331 330 328 327 327 328 327 326 327 327 327 328 328 328 329 330 329 328 327 326 327 326 326 326 327 328 329 329 329 329 329 329 329 329 330 329 328 327 328 329 329 328 328 328 327 327 327 326 325 325 324 324 326 325
328 329 329 331 331 330 331 331 330 329 329 328 326 325 326 325 325 326 327 327 326 326 327 327 327 328 327 326 326 326 326 325 325 325 327 327 327 327 328 328 328 329 329 328 329 328 327 327 328 328 328 327 328 327 326 326 326 326 326 325 325 326 325
328 330 330 332 332 332 332 330 329 330 329 327 325 325 325 324 324 325 325 326 326 325 327 327 326 326 326 326 324 322 324 324 324 324 326 326 325 326 327 326 327 328 328 328 328 328 327 327 327 327 327 327 328 327 325 326 326 326 326 325 325 325 325
328 331 331 332 332 331 331 328 329 330 328 328 327 327 327 326 326 324 322 324 325 323 325 326 325 325 325 326 324 319 321 323 322 323 325 325 325 325 326 326 327 327 327 328 327 328 327 327 327 328 327 327 327 326 325 325 325 325 325 325 324 325 325
330 332 332 332 330 330 330 328 329 329 328 329 328 327 328 327 326 322 319 321 321 321 321 320 321 321 322 326 324 321 323 324 321 323 325 325 325 325 325 326 326 326 326 328 328 328 327 327 328 327 327 327 326 325 324 324 324 323 324 324 324 324 324
331 331 331 330 329 329 329 329 328 328 328 328 328 327 326 326 324 319 319 321 320 319 319 317 318 318 320 325 324 323 326 325 322 324 325 325 325 325 325 326 326 326 327 328 328 328 327 327 328 328 327 327 325 324 323 322 322 322 322 323 324 323 322
330 330 330 329 329 330 329 328 329 329 328 328 328 326 324 325 324 322 323 322 315 315 317 320 322 320 321 326 325 322 325 325 324 325 325 325 325 325 326 327 328 327 327 327 327 327 327 328 327 327 326 326 324 323 322 321 321 321 321 322 322 322 320
331 331 330 330 329 328 328 328 327 325 323 325 325 322 322 325 325 324 325 318 311 315 320 322 324 323 322 325 325 324 325 325 325 325 324 325 325 324 325 326 328 328 326 327 327 326 327 327 326 325 323 323 323 322 322 321 321 320 320 320 320 320 318
331 329 329 328 325 323 327 328 325 322 320 322 322 318 321 326 324 324 322 312 310 318 322 323 324 323 323 324 324 324 324 324 324 324 324 324 323 324 324 325 328 328 326 327 327 327 327 326 324 323 322 322 322 321 321 321 320 319 318 318 317 318 316
329 329 328 325 321 322 326 326 325 325 322 321 318 315 321 326 323 322 319 313 314 320 323 323 322 322 323 323 323 323 323 322 322 322 323 322 322 324 325 326 328 327 326 327 327 327 326 324 323 322 321 321 321 321 321 320 320 319 318 317 316 316 315
329 328 326 323 322 325 327 325 326 324 319 317 317 317 323 326 323 321 320 319 320 322 323 323 322 322 323 322 322 322 321 320 320 321 321 321 322 324 326 327 328 327 326 327 327 326 324 322 321 320 319 320 319 319 319 319 319 319 317 316 315 315 313
329 328 326 324 325 327 326 326 326 323 318 319 320 321 325 325 322 322 321 320 320 321 322 323 322 322 322 321 321 320 319 319 319 320 321 322 323 324 324 326 328 327 327 327 326 325 323 321 321 319 319 319 318 318 318 318 318 318 318 316 314 313 312
328 328 327 326 326 327 326 326 325 323 322 323 322 323 325 324 322 322 320 319 319 318 321 323 323 321 321 322 320 318 318 318 319 320 321 322 323 323 324 326 328 328 327 327 325 324 322 321 320 320 319 318 318 317 317 317 317 318 318 315 313 313 312
328 327 326 326 326 326 326 325 325 322 323 324 323 324 324 322 321 322 320 319 318 317 320 322 322 322 321 320 318 318 319 319 320 320 320 321 322 323 323 325 327 327 326 325 324 323 322 320 319 320 319 319 319 318 317 317 317 317 316 314 313 313 312
328 326 325 325 325 325 326 325 324 321 322 323 323 324 323 323 322 321 320 319 317 317 319 321 321 321 319 317 317 318 319 320 320 320 320 320 321 322 323 324 325 325 324 323 322 322 322 321 320 319 320 320 320 319 319 318 317 316 316 315 314 314 313
328 326 325 325 325 325 326 325 323 322 322 322 322 324 324 323 323 322 320 319 317 318 319 319 320 319 318 318 319 319 320 320 320 320 320 320 320 322 322 322 323 323 323 323 322 322 321 321 320 320 321 321 320 320 320 319 318 317 317 317 316 315 314
325 326 326 325 325 325 326 325 323 323 323 322 322 323 323 323 322 322 320 318 317 318 318 319 319 319 319 319 319 320 320 320 320 319 319 319 319 320 321 321 322 322 323 323 322 322 322 321 320 320 320 320 320 320 320 319 320 319 318 318 317 317 315
324 325 325 325 325 325 325 325 323 323 323 322 322 322 321 322 322 321 320 318 317 316 317 319 319 319 320 320 320 320 320 320 320 320 320 320 320 320 319 319 320 320 321 322 322 322 321 321 320 320 319 319 318 319 320 320 320 319 319 319 318 317 316
325 325 325 325 325 325 325 324 324 323 322 322 321 320 320 320 320 320 319 318 317 317 318 319 319 319 319 319 320 320 320 320 320 321 322 322 322 322 321 320 320 319 320 320 320 320 320 320 320 319 319 319 319 319 319 320 320 320 319 319 319 318 317
327 326 325 324 324 324 324 324 323 322 322 322 321 320 319 318 318 319 320 319 318 319 319 319 319 319 318 319 320 320 320 321 321 322 322 323 322 322 322 322 322 321 320 318 318 318 318 318 320 319 319 320 320 320 320 320 320 320 320 320 320 318 318
327 326 325 324 324 323 323 324 323 322 321 321 320 319 318 318 319 320 321 321 320 321 321 320 319 318 318 319 320 321 321 321 322 322 323 323 323 323 323 323 321 319 318 318 317 317 317 317 318 318 318 319 319 320 320 320 320 320 320 320 320 319 318
326 325 325 324 324 323 322 322 322 321 321 321 320 320 319 318 319 320 320 321 321 321 321 320 317 317 317 318 319 321 322 322 322 323 323 323 323 323 323 323 323 320 318 317 317 317 317 317 317 317 317 317 317 318 318 319 319 320 320 320 319 319 319
325 325 324 323 323 323 322 321 319 319 319 317 316 318 320 320 320 320 320 321 321 320 319 317 315 314 314 314 315 318 321 323 323 323 323 323 323 324 324 324 325 324 321 319 318 318 317 317 317 317 317 317 317 317 317 317 318 319 320 320 319 319 319
325 324 324 323 322 323 322 321 319 317 317 314 311 313 316 317 316 315 316 317 317 315 312 311 311 310 310 310 311 312 317 322 324 323 323 324 323 323 324 324 324 324 323 322 320 319 320 320 318 317 317 317 317 317 317 317 317 317 318 319 319 319 319
324 323 323 322 322 322 322 321 319 317 317 315 312 313 314 313 311 311 311 312 313 311 309 310 310 309 308 310 310 309 312 318 323 324 324 324 324 324 324 324 324 323 323 322 320 319 321 322 321 320 319 318 317 318 318 318 317 316 317 317 318 318 318
322 322 322 321 321 321 321 321 318 315 314 313 313 314 315 315 314 313 313 312 313 312 311 311 311 310 309 309 310 310 310 312 317 321 323 322 322 323 323 324 323 322 323 323 321 320 320 318 319 321 321 319 318 319 320 320 319 318 316 316 317 317 317
322 322 322 321 320 321 321 320 317 313 310 310 311 311 313 316 317 316 315 315 316 315 314 314 313 311 310 310 311 311 311 312 315 318 319 318 319 322 323 323 323 322 323 322 321 321 321 319 318 319 320 319 319 319 321 321 320 319 318 316 316 317 317
320 321 321 321 320 321 320 320 318 315 312 311 311 311 312 314 316 318 318 317 318 317 316 315 314 312 312 312 313 313 315 317 318 318 318 319 321 322 322 322 322 322 323 322 320 319 319 319 319 319 319 319 319 319 320 320 320 320 318 316 316 317 318
318 318 319 319 320 320 319 319 319 318 316 314 313 313 314 314 315 318 319 318 318 317 316 315 315 314 314 314 314 315 316 318 319 319 319 320 321 322 321 320 321 322 322 321 319 318 318 318 318 319 319 319 319 319 319 320 320 319 317 316 317 317 318
317 317 317 318 319 319 318 319 318 318 318 317 316 316 316 316 316 318 319 319 319 318 318 317 317 316 316 316 316 316 317 318 319 319 320 320 320 320 320 320 320 320 320 320 319 319 319 318 319 319 318 318 318 318 318 319 319 319 318 317 317 317 318
317 317 317 318 319 318 318 319 318 317 317 318 318 318 318 317 318 319 319 319 319 318 319 319 318 318 318 317 317 317 318 318 318 319 319 319 319 319 319 318 318 317 317 318 318 319 319 318 318 318 317 317 317 317 317 318 319 319 318 318 318 318 318
314 314 314 315 316 317 317 317 317 317 317 317 317 317 318 318 318 318 318 317 317 317 317 317 317 318 317 317 317 317 316 317 317 318 318 317 318 317 317 316 316 316 316 316 316 316 317 317 317 316 316 317 317 317 317 319 319 318 317 317 317 317 317
310 311 310 311 312 313 313 313 313 314 314 314 314 314 314 315 315 315 315 315 315 315 315 314 315 315 316 316 316 315 315 315 315 314 315 315 316 315 314 315 315 315 315 315 315 316 316 316 316 317 316 316 316 317 318 318 318 317 316 316 315 314 314
307 307 308 308 309 309 310 310 310 311 311 311 311 312 312 312 312 312 312 312 312 312 311 312 313 313 313 313 313 313 313 313 313 312 312 314 315 315 314 314 314 313 313 314 314 314 314 315 315 316 316 316 316 316 317 317 316 316 315 315 314 313 312
307 306 306 305 305 306 307 308 308 309 309 310 310 310 310 311 311 311 310 310 309 309 310 310 310 310 311 311 311 311 311 311 312 311 311 312 313 313 313 313 312 312 311 312 312 312 312 313 314 314 315 315 315 315 316 316 316 315 314 313 312 312 312